Weather Roundup
Issued by NWS Chicago, IL

Home | Current Version | Previous Version | Text Only | Print | Product List | Glossary On
Versions: 1 2 3 4 5 6 7 8 9 10 11 12 13 14 15 16 17 18 19 20 21 22 23 24 25 26 27 28 29 30 31 32 33 34 35 36 37 38 39 40 41 42 43 44 45 46 47 48 49 50
000
NZUS59 KLOT 291121
HRRLOT

CHICAGO AREA WEATHER ROUNDUP
NATIONAL WEATHER SERVICE CHICAGO/ROMEOVILLE IL
600 AM CDT WED JUL 29 2015

NOTE: "FAIR" INDICATES FEW OR NO CLOUDS BELOW 12,000 FEET WITH NO
SIGNIFICANT WEATHER AND/OR OBSTRUCTIONS TO VISIBILITY.

* THESE STATIONS ARE NOT UNDER NWS QUALITY CONTROL. THEY ALSO MAY NOT
  REPORT WEATHER SUCH AS PRECIPITATION OR FOG.

ILZ005-006-012>014-019>023-291200-
NORTHEAST ILLINOIS

CITY           SKY/WX    TMP DP  RH WIND       PRES   REMARKS
OHARE          CLOUDY    75  70  84 W9        29.93R
MIDWAY         CLOUDY    77  71  82 W9        29.93R
AURORA         CLOUDY    73  70  90 SW3       29.95S FOG
LANSING*       CLOUDY    74  70  89 W3        29.95R FOG
JOLIET*        CLOUDY    74  73  97 CALM      29.95R
WAUKEGAN       CLOUDY    75  70  84 W5        29.92S
DUPAGE AIRPORT CLOUDY    73  70  90 SW6       29.95R
WHEELING       CLOUDY    76  70  82 SW5       29.94S
KANKAKEE*      DRIZZLE   72  72  98 SW3       29.95R
MORRIS*        CLOUDY    73  71  95 W5        29.92R
LEWIS AIRPORT* CLOUDY    73  72  98 W6        29.96R FOG
NORTHERLY IS     N/A     76  69  79 W10         N/A
$$

WIZ051-052-058>065-066-070>072-291200-
SOUTHEAST WISCONSIN

CITY           SKY/WX    TMP DP  RH WIND       PRES   REMARKS
MILWAUKEE      LGT RAIN  77  72  84 W9        29.91R
KENOSHA*       CLOUDY    75  71  87 W7        29.92S
RACINE*        CLOUDY    76  71  85 W8        29.93S
BURLINGTON     CLOUDY    73  71  93 W9        29.93S
WAUKESHA       LGT RAIN  73  72  94 NW12      29.94S FOG
WEST BEND      RAIN      73  70  88 W10       29.92S
$$

INZ001>003-010>013-019-020-291200-
NORTHWEST INDIANA

CITY           SKY/WX    TMP DP  RH WIND       PRES   REMARKS
GARY*          CLOUDY    75  73  94 W7        29.93S
MICHIGAN CITY* NOT AVBL
RENSSELAER*    NOT AVBL
VALPARAISO     CLOUDY    75  73  93 W5        29.94S
$$

LMZ740>746-291200-
SOUTHERN LAKE MICHIGAN

STATION/POSITION TIME  SKY/WX   TEMP WIND        PRES    VSBY
                                AIR  DIR/SP/G
                 (UTC)          (F)  (DEG/KT/KT) (MB)    (MI)
HARRISON CRIB    1100            76  260/ 12/ 14   N/A
BURNHAM HARBOR   1100            76  240/  7/ 10   N/A
CALUMET HARBOR   1000            75  230/  6/  9   N/A
BURNS HARBOR     1000            77  230/  7/ 10 1013.9F
MICHIGAN CITY    1100            75  230/  7/  8   N/A
$$

ABBREVIATIONS USED IN REMARKS
   TC - TEMPERATURE IN CELSIUS
  WCI - WIND CHILL INDEX
   HX - HEAT INDEX
  VSB - VISIBILITY
$$



USA.gov is the U.S. government's official web portal to all federal, state and local government web resources and services.